sat.trackr.live / text

‹ back to catalog

STARLINK-36208

NORAD 67108 · 2025-299G

PAYLOAD ACTIVE UNKNOWN

§ Identity

Operator
Country
US
Launch date
2025-12-15
Launch site
AFETR
Launch vehicle
Mass (kg)
RCS (m²)

Purposes: comms

External: N2YO · Heavens-Above · Gunter

§ Orbital elements

Epoch: 2026-09-20T02:31:52.348800Z

Period
94.27 min
Inclination
43.0009°
Eccentricity
0.0001355
Mean motion
15.27586305 rev/d
Perigee alt
482.1 km
Apogee alt
484.0 km
Semi-major
6,861.2 km
B*
4.0683e-4
RAAN
150.6805°
Arg perigee
268.7233°
Mean anomaly
91.3463°
Rev number
4,285

§ Raw data

STARLINK-362081 67108U 25299G   26263.10546700  .00010952  00000+0  40683-3 0  99912 67108  43.0009 150.6805 0001355 268.7233  91.3463 15.27586305 42857

JSON: /api/v1/satellites/67108 · /tle

For live sub-satellite position, see the globe view (requires WebGL).

§ Visibility from observer

Set your observer location to see the next 7 days of passes ≥ 10°. The values pass through the URL so the page stays shareable.

No JS? Fill the form by hand. The geolocation button needs JavaScript.